Tracking 22881 objects as of 20-Apr-2021
HD Live streaming from Space Station
objects crossing your sky now

ONEWEB-0101

Track ONEWEB-0101 now!
10-day predictions
ONEWEB-0101 is classified as:


NORAD ID: 48049
Int'l Code: 2021-025H
Perigee: 488.5 km
Apogee: 500.6 km
Inclination: 87.4 °
Period: 94.4 minutes
Semi major axis: 6865 km
RCS: Unknown
Launch date: March 25, 2021
Source: United States (US)
Launch site: VOSTOCHNY COSMODROME (VOSTO)
aabbcc
Your satellite tracking list
Your tracking list is empty




NASA's NSSDC Master Catalog

Two Line Element Set (TLE):
1 48049U 21025H   21109.83334491 -.01103404  00000-0 -46799-1 0  9994
2 48049  87.3975 341.0580 0008814 153.1404 196.5457 15.26127408  5217
Source of the keplerian elements: AFSPC